| time (UTC) | temp C | wind direction | speed KPH | gust KPH | rain 1hr cm | rain 24hr cm | rain mn cm | humidity % | barometer mb |
| 20260510141508 | 22 | 185 | 0.0 | 6.4 | 0.00 | 0.00 | 0.00 | 81 | 1011.1 |
| 20260510140005 | 22 | 185 | 3.2 | 8.0 | 0.00 | 0.00 | 0.00 | 81 | 1011.0 |
| 20260510134504 | 22 | 195 | 3.2 | 8.0 | 0.00 | 0.00 | 0.00 | 81 | 1010.9 |
| 20260510133002 | 22 | 195 | 1.6 | 6.4 | 0.00 | 0.00 | 0.00 | 81 | 1010.6 |
| 20260510131605 | 21 | 280 | 0.0 | 0.0 | 0.00 | 0.00 | 0.00 | 80 | 1010.4 |
| 20260510130059 | 21 | 198 | 0.0 | 0.0 | 0.00 | 0.00 | 0.00 | 80 | 1010.0 |
| 20260510124612 | 20 | 198 | 0.0 | 0.0 | 0.00 | 0.00 | 0.00 | 80 | 1010.1 |
| 20260510123058 | 20 | 198 | 0.0 | 0.0 | 0.00 | 0.00 | 0.00 | 80 | 1010.0 |
| 20260510121556 | 20 | 198 | 0.0 | 0.0 | 0.00 | 0.00 | 0.00 | 80 | 1009.9 |
| 20260510120055 | 19 | 198 | 0.0 | 0.0 | 0.00 | 0.00 | 0.00 | 79 | 1009.6 |
| 20260510114554 | 19 | 198 | 0.0 | 0.0 | 0.00 | 0.00 | 0.00 | 78 | 1009.6 |
| 20260510113101 | 19 | 198 | 0.0 | 0.0 | 0.00 | 0.00 | 0.00 | 78 | 1009.4 |
| 20260510111607 | 20 | 198 | 0.0 | 0.0 | 0.00 | 0.00 | 0.00 | 78 | 1009.5 |
| 20260510110049 | 20 | 198 | 0.0 | 0.0 | 0.00 | 0.00 | 0.00 | 77 | 1009.8 |
| 20260510104601 | 20 | 198 | 0.0 | 0.0 | 0.00 | 0.00 | 0.00 | 77 | 1009.8 |
| 20260510103046 | 20 | 198 | 0.0 | 0.0 | 0.00 | 0.00 | 0.00 | 77 | 1009.8 |
| 20260510101544 | 20 | 198 | 0.0 | 0.0 | 0.00 | 0.00 | 0.00 | 76 | 1009.9 |
| 20260510100043 | 21 | 198 | 0.0 | 0.0 | 0.00 | 0.00 | 0.00 | 75 | 1009.8 |
| 20260510094547 | 21 | 198 | 0.0 | 0.0 | 0.00 | 0.00 | 0.00 | 75 | 1009.8 |
| 20260510093041 | 21 | 198 | 0.0 | 1.6 | 0.00 | 0.00 | 0.00 | 75 | 1009.4 |
| 20260510091551 | 21 | 200 | 0.0 | 0.0 | 0.00 | 0.00 | 0.00 | 73 | 1009.5 |
| 20260510090038 | 21 | 200 | 0.0 | 0.0 | 0.00 | 0.00 | 0.00 | 73 | 1009.6 |
| 20260510084544 | 21 | 200 | 0.0 | 0.0 | 0.00 | 0.00 | 0.00 | 71 | 1009.5 |
| 20260510083034 | 21 | 200 | 0.0 | 0.0 | 0.00 | 0.00 | 0.00 | 70 | 1009.3 |
| 20260510081538 | 22 | 200 | 0.0 | 0.0 | 0.00 | 0.00 | 0.00 | 69 | 1009.3 |
| 20260510080028 | 22 | 200 | 0.0 | 0.0 | 0.00 | 0.00 | 0.00 | 68 | 1009.2 |
| 20260510074530 | 22 | 200 | 0.0 | 0.0 | 0.00 | 0.00 | 0.00 | 68 | 1009.3 |
| 20260510073034 | 22 | 200 | 0.0 | 0.0 | 0.00 | 0.00 | 0.00 | 67 | 1009.2 |
| 20260510071534 | 23 | 202 | 0.0 | 4.8 | 0.00 | 0.00 | 0.00 | 66 | 1009.1 |
| 20260510070026 | 23 | 181 | 0.0 | 4.8 | 0.00 | 0.00 | 0.00 | 66 | 1009.1 |
| 20260510064545 | 23 | 180 | 0.0 | 4.8 | 0.00 | 0.00 | 0.00 | 66 | 1009.2 |
| 20260510063022 | 23 | 169 | 1.6 | 9.7 | 0.00 | 0.00 | 0.00 | 66 | 1009.1 |
| 20260510061617 | 23 | 173 | 1.6 | 4.8 | 0.00 | 0.00 | 0.00 | 67 | 1009.3 |
| 20260510060027 | 23 | 171 | 0.0 | 8.0 | 0.00 | 0.00 | 0.00 | 67 | 1009.2 |
| 20260510054512 | 24 | 184 | 0.0 | 4.8 | 0.00 | 0.00 | 0.00 | 67 | 1009.1 |
| 20260510053011 | 24 | 148 | 1.6 | 8.0 | 0.00 | 0.00 | 0.00 | 67 | 1009.0 |
| 20260510051509 | 24 | 176 | 3.2 | 9.7 | 0.00 | 0.00 | 0.00 | 67 | 1008.9 |
| 20260510050009 | 24 | 180 | 1.6 | 6.4 | 0.00 | 0.00 | 0.00 | 66 | 1008.9 |
| 20260510044508 | 25 | 173 | 0.0 | 1.6 | 0.00 | 0.00 | 0.00 | 65 | 1008.7 |
| 20260510043005 | 25 | 173 | 0.0 | 6.4 | 0.00 | 0.00 | 0.00 | 65 | 1008.7 |
| 20260510041504 | 25 | 177 | 1.6 | 6.4 | 0.00 | 0.00 | 0.00 | 64 | 1008.7 |
| 20260510040004 | 25 | 161 | 1.6 | 4.8 | 0.00 | 0.00 | 0.00 | 64 | 1008.6 |
| 20260510034503 | 25 | 163 | 0.0 | 3.2 | 0.00 | 0.00 | 0.00 | 64 | 1008.4 |
| 20260510033002 | 26 | 165 | 1.6 | 3.2 | 0.00 | 0.00 | 0.00 | 63 | 1008.2 |
| 20260510031503 | 26 | 166 | 0.0 | 1.6 | 0.00 | 0.00 | 0.00 | 63 | 1007.9 |
| 20260510030002 | 26 | 166 | 0.0 | 3.2 | 0.00 | 0.00 | 0.00 | 62 | 1007.8 |
| 20260510024601 | 26 | 166 | 0.0 | 3.2 | 0.00 | 0.00 | 0.00 | 62 | 1007.7 |
| 20260510023001 | 26 | 166 | 0.0 | 0.0 | 0.00 | 0.00 | 0.00 | 60 | 1007.5 |
| 20260510021600 | 27 | 166 | 0.0 | 0.0 | 0.00 | 0.00 | 0.00 | 59 | 1007.4 |
| 20260510020100 | 27 | 166 | 0.0 | 0.0 | 0.00 | 0.00 | 0.00 | 57 | 1007.3 |
| 20260510014601 | 27 | 166 | 0.0 | 0.0 | 0.00 | 0.00 | 0.00 | 56 | 1007.0 |
| 20260510013103 | 28 | 166 | 0.0 | 3.2 | 0.00 | 0.00 | 0.00 | 55 | 1006.8 |
| 20260510011600 | 28 | 166 | 1.6 | 3.2 | 0.00 | 0.00 | 0.00 | 53 | 1006.7 |
| 20260510010057 | 29 | 166 | 1.6 | 4.8 | 0.00 | 0.00 | 0.00 | 51 | 1006.6 |
| 20260510004557 | 30 | 175 | 1.6 | 4.8 | 0.00 | 0.00 | 0.00 | 48 | 1006.5 |
| 20260510003100 | 30 | 130 | 1.6 | 6.4 | 0.00 | 0.00 | 0.00 | 47 | 1006.3 |
| 20260510001556 | 30 | 169 | 3.2 | 8.0 | 0.00 | 0.00 | 0.00 | 44 | 1006.1 |
| 20260510000104 | 31 | 133 | 3.2 | 6.4 | 0.00 | 0.00 | 0.00 | 45 | 1006.0 |
| 20260509234605 | 31 | 172 | 4.8 | 14.5 | 0.00 | 0.00 | 0.00 | 46 | 1005.7 |
| 20260509233057 | 31 | 154 | 8.0 | 12.9 | 0.00 | 0.00 | 0.00 | 44 | 1005.5 |
| 20260509231609 | 32 | 170 | 3.2 | 8.0 | 0.00 | 0.00 | 0.00 | 40 | 1005.8 |
| 20260509224553 | 32 | 170 | 1.6 | 11.3 | 0.00 | 0.00 | 0.00 | 42 | 1006.2 |
| 20260509223049 | 32 | 192 | 1.6 | 6.4 | 0.00 | 0.00 | 0.00 | 44 | 1006.1 |
| 20260509221547 | 32 | 173 | 3.2 | 11.3 | 0.00 | 0.00 | 0.00 | 46 | 1006.0 |
| 20260509220045 | 32 | 255 | 0.0 | 6.4 | 0.00 | 0.00 | 0.00 | 48 | 1006.0 |
| 20260509214545 | 32 | 174 | 3.2 | 14.5 | 0.00 | 0.00 | 0.00 | 48 | 1006.1 |
| 20260509213046 | 32 | 294 | 0.0 | 8.0 | 0.00 | 0.00 | 0.00 | 49 | 1006.2 |
| 20260509211549 | 32 | 67 | 0.0 | 9.7 | 0.00 | 0.00 | 0.00 | 48 | 1006.4 |
| 20260509210052 | 32 | 186 | 0.0 | 9.7 | 0.00 | 0.00 | 0.00 | 50 | 1006.6 |
| 20260509204537 | 31 | 175 | 6.4 | 12.9 | 0.00 | 0.00 | 0.00 | 51 | 1006.8 |
| 20260509203041 | 31 | 169 | 6.4 | 12.9 | 0.00 | 0.00 | 0.00 | 51 | 1007.0 |
| 20260509201540 | 31 | 231 | 1.6 | 4.8 | 0.00 | 0.00 | 0.00 | 53 | 1007.3 |
| 20260509200034 | 31 | 325 | 3.2 | 8.0 | 0.00 | 0.00 | 0.00 | 52 | 1007.5 |
| 20260509194531 | 31 | 172 | 4.8 | 8.0 | 0.00 | 0.00 | 0.00 | 55 | 1007.8 |
| 20260509193029 | 31 | 184 | 3.2 | 9.7 | 0.00 | 0.00 | 0.00 | 55 | 1008.1 |
| 20260509191526 | 30 | 196 | 1.6 | 6.4 | 0.00 | 0.00 | 0.00 | 57 | 1008.3 |
| 20260509190026 | 30 | 218 | 3.2 | 8.0 | 0.00 | 0.00 | 0.00 | 62 | 1008.4 |
| 20260509184532 | 30 | 226 | 1.6 | 9.7 | 0.00 | 0.00 | 0.00 | 60 | 1008.3 |
| 20260509183030 | 30 | 185 | 3.2 | 9.7 | 0.00 | 0.00 | 0.00 | 61 | 1008.6 |
| 20260509181519 | 30 | 249 | 3.2 | 8.0 | 0.00 | 0.00 | 0.00 | 64 | 1008.7 |
| 20260509180019 | 29 | 253 | 1.6 | 11.3 | 0.00 | 0.00 | 0.00 | 65 | 1009.0 |
| 20260509174516 | 28 | 303 | 8.0 | 12.9 | 0.00 | 0.00 | 0.00 | 64 | 1009.1 |
| 20260509173015 | 28 | 292 | 3.2 | 11.3 | 0.00 | 0.00 | 0.00 | 67 | 1009.2 |
| 20260509171519 | 28 | 266 | 3.2 | 12.9 | 0.00 | 0.00 | 0.00 | 69 | 1009.3 |
| 20260509170005 | 27 | 278 | 1.6 | 9.7 | 0.00 | 0.00 | 0.00 | 72 | 1009.4 |
| 20260509164502 | 27 | 252 | 3.2 | 11.3 | 0.00 | 0.00 | 0.00 | 74 | 1009.2 |
| 20260509163106 | 27 | 278 | 4.8 | 11.3 | 0.00 | 0.00 | 0.00 | 76 | 1009.3 |
| 20260509161558 | 26 | 217 | 3.2 | 8.0 | 0.00 | 0.00 | 0.00 | 78 | 1009.0 |
| 20260509160052 | 25 | 257 | 3.2 | 11.3 | 0.00 | 0.00 | 0.00 | 79 | 1009.6 |
| 20260509154648 | 25 | 275 | 3.2 | 8.0 | 0.00 | 0.00 | 0.00 | 81 | 1009.6 |
| 20260509153045 | 23 | 206 | 1.6 | 9.7 | 0.00 | 0.00 | 0.00 | 82 | 1009.8 |
| 20260509151542 | 22 | 304 | 0.0 | 4.8 | 0.00 | 0.00 | 0.00 | 83 | 1009.8 |
| 20260509150040 | 22 | 209 | 0.0 | 1.6 | 0.00 | 0.00 | 0.00 | 83 | 1009.9 |
| 20260509144538 | 21 | 176 | 3.2 | 8.0 | 0.00 | 0.00 | 0.00 | 83 | 1010.0 |
| 20260509143046 | 21 | 172 | 0.0 | 6.4 | 0.00 | 0.00 | 0.00 | 83 | 1010.2 |